Location: Unspecified
(0.0000°N, 0.0000°E)
Time: 06:34:14
(UTC+00:00)

Transit 2A Rocket - Pass Details

Date: 22 November 2019
Orbit: 594 x 909 km, 66.7° (Epoch: 11 December)

Event Time Altitude Azimuth Distance (km) Brightness Sun altitude
Rises 20:13:58 0° 232° (SW) 3,323 9.3 -34.3°
Reaches altitude 10° 20:17:32 10° 254° (WSW) 2,319 8.3 -35.2°
Maximum altitude 20:20:26 15° 288° (WNW) 1,940 7.5 -35.8°
Enters shadow 20:21:20 14° 300° (WNW) 1,956 7.4 -36.0°
